N4QCZ Weather Reports


time (UTC)temp
C
wind
direction
speed
KPH
gust
KPH
rain 1hr
cm
rain 24hr
cm
rain mn
cm
humidity
%
barometer
mb
20260906131550 26 0 0.0 3.2 0.00 0.00 0.00 91 1013.6
20260906130051 25 0 0.0 3.2 0.00 0.00 0.00 92 1013.5
20260906124546 25 149 0.0 3.2 0.00 0.00 0.00 94 1013.4
20260906123115 25 0 0.0 1.6 0.00 0.00 0.00 95 1013.5
20260906121548 24 0 0.0 1.6 0.00 0.00 0.00 95 1013.5
20260906120047 23 0 0.0 0.0 0.00 0.00 0.00 95 1013.3
20260906114542 23 0 0.0 1.6 0.00 0.00 0.00 94 1013.3
20260906113042 23 0 0.0 0.0 0.00 0.00 0.00 94 1013.1
20260906111548 23 0 0.0 0.0 0.00 0.00 0.00 94 1013.1
20260906110046 23 0 0.0 0.0 0.00 0.00 0.00 94 1012.8
20260906104541 23 0 0.0 0.0 0.00 0.00 0.00 94 1012.6
20260906103041 23 0 0.0 0.0 0.00 0.00 0.00 94 1012.4
20260906101547 23 0 0.0 0.0 0.00 0.00 0.00 94 1012.2
20260906100045 23 0 0.0 0.0 0.00 0.00 0.00 94 1012.2
20260906094559 23 0 0.0 0.0 0.00 0.00 0.00 94 1012.2
20260906093050 23 0 0.0 0.0 0.00 0.00 0.00 94 1012.2
20260906091601 24 0 0.0 0.0 0.00 0.00 0.00 93 1012.0
20260906090048 24 0 0.0 0.0 0.00 0.00 0.00 93 1012.0
20260906084551 24 0 0.0 0.0 0.00 0.00 0.00 93 1012.0
20260906083050 24 0 0.0 0.0 0.00 0.00 0.00 93 1011.8
20260906081549 24 0 0.0 0.0 0.00 0.00 0.00 93 1012.1
20260906080047 24 0 0.0 0.0 0.00 0.00 0.00 93 1012.1
20260906074548 24 0 0.0 0.0 0.00 0.00 0.00 93 1012.1
20260906073050 24 0 0.0 0.0 0.00 0.00 0.00 93 1012.2
20260906071548 24 0 0.0 0.0 0.00 0.00 0.00 92 1012.1
20260906070047 25 0 0.0 0.0 0.00 0.00 0.00 92 1012.1
20260906064551 25 0 0.0 0.0 0.00 0.00 0.00 92 1012.2
20260906063052 25 0 0.0 0.0 0.00 0.00 0.00 92 1012.4
20260906061551 25 0 0.0 0.0 0.00 0.00 0.00 91 1012.5
20260906060048 25 0 0.0 0.0 0.00 0.00 0.00 91 1012.5
20260906054550 25 0 0.0 0.0 0.00 0.00 0.00 91 1012.6
20260906053102 25 0 0.0 0.0 0.00 0.00 0.00 91 1012.6
20260906051548 25 0 0.0 0.0 0.00 0.00 0.00 90 1012.4
20260906050053 25 0 0.0 0.0 0.00 0.00 0.00 90 1012.5
20260906044542 26 0 0.0 1.6 0.00 0.00 0.00 91 1012.5
20260906043052 26 0 0.0 0.0 0.00 0.00 0.00 90 1012.7
20260906041555 26 0 0.0 0.0 0.00 0.00 0.00 90 1012.8
20260906040044 26 0 0.0 0.0 0.00 0.00 0.00 89 1012.9
20260906034551 26 0 0.0 1.6 0.00 0.00 0.00 89 1013.0
20260906033104 26 0 0.0 0.0 0.00 0.00 0.00 88 1013.2
20260906031547 26 0 0.0 1.6 0.00 0.00 0.00 88 1013.6
20260906030046 27 0 0.0 0.0 0.00 0.00 0.00 87 1013.5
20260906024551 27 0 0.0 0.0 0.00 0.00 0.00 86 1013.6
20260906023052 27 0 0.0 0.0 0.00 0.00 0.00 86 1013.6
20260906021549 27 0 0.0 0.0 0.00 0.00 0.00 86 1013.6
20260906020103 27 0 0.0 0.0 0.00 0.00 0.00 85 1013.2
20260906014543 27 0 0.0 0.0 0.00 0.00 0.00 84 1012.8
20260906013050 28 0 0.0 0.0 0.00 0.00 0.00 84 1012.4
20260906011557 28 0 0.0 0.0 0.00 0.00 0.00 83 1012.3
20260906010050 28 0 0.0 0.0 0.00 0.00 0.00 82 1012.1
20260906004551 28 0 0.0 0.0 0.00 0.00 0.00 82 1011.8
20260906003043 28 0 0.0 0.0 0.00 0.00 0.00 81 1011.7
20260906001552 28 0 0.0 3.2 0.00 0.00 0.00 81 1011.6
20260906000055 28 109 0.0 1.6 0.00 0.00 0.00 80 1011.4
20260905234548 28 0 0.0 0.0 0.00 0.00 0.00 81 1011.2
20260905233053 29 0 0.0 0.0 0.00 0.00 0.00 79 1011.3
20260905231550 30 0 0.0 1.6 0.00 0.00 0.00 78 1011.3
20260905230054 30 0 0.0 1.6 0.00 0.00 0.00 77 1011.5
20260905224549 30 0 0.0 3.2 0.00 0.00 0.00 77 1011.7
20260905223049 31 0 0.0 3.2 0.00 0.00 0.00 75 1011.8
20260905221547 31 0 0.0 3.2 0.00 0.00 0.00 75 1012.0
20260905220043 32 0 0.0 3.2 0.00 0.00 0.00 73 1012.0
20260905214549 32 184 0.0 4.8 0.00 0.00 0.00 69 1012.1
20260905213049 31 327 0.0 4.8 0.00 0.00 0.00 72 1011.9
20260905211552 31 0 0.0 3.2 0.00 0.00 0.00 74 1012.1
20260905210047 31 0 0.0 3.2 0.00 0.00 0.00 71 1012.1
20260905204553 32 153 0.0 3.2 0.00 0.00 0.00 69 1012.1
20260905203048 32 313 0.0 11.3 0.00 0.00 0.00 69 1012.1
20260905201547 32 0 0.0 6.4 0.00 0.00 0.00 73 1012.2
20260905200042 32 0 0.0 3.2 0.00 0.00 0.00 69 1012.3
20260905194557 32 0 1.6 11.3 0.00 0.00 0.00 74 1012.7
20260905193047 33 0 0.0 0.0 0.00 0.00 0.00 71 1012.4
20260905191547 32 0 0.0 8.0 0.00 0.00 0.00 71 1012.8
20260905190043 32 328 0.0 4.8 0.00 0.00 0.00 71 1013.3
20260905184611 32 0 0.0 9.7 0.00 0.00 0.00 69 1013.5
20260905183052 32 0 0.0 6.4 0.00 0.00 0.00 74 1013.6
20260905181556 32 0 0.0 4.8 0.00 0.00 0.00 71 1014.0
20260905180048 31 0 0.0 4.8 0.00 0.00 0.00 74 1014.1
20260905174542 31 171 0.0 3.2 0.00 0.00 0.00 74 1014.0
20260905173047 31 0 0.0 6.4 0.00 0.00 0.00 75 1014.4
20260905171547 31 118 1.6 6.4 0.00 0.00 0.00 76 1014.4
20260905170043 30 149 0.0 4.8 0.00 0.00 0.00 77 1014.5
20260905164543 30 0 1.6 6.4 0.00 0.00 0.00 77 1014.7
20260905163048 30 0 1.6 8.0 0.00 0.00 0.00 79 1015.1
20260905161547 29 0 0.0 8.0 0.00 0.00 0.00 79 1015.3
20260905160047 28 0 0.0 3.2 0.00 0.00 0.00 81 1015.5
20260905154610 28 0 0.0 6.4 0.00 0.00 0.00 83 1015.7
20260905153049 27 0 0.0 3.2 0.00 0.00 0.00 84 1015.8
20260905151545 27 0 0.0 4.8 0.00 0.00 0.00 87 1016.0
20260905144548 26 0 1.6 4.8 0.00 0.00 0.00 89 1015.8
20260905143049 25 0 0.0 3.2 0.00 0.00 0.00 93 1015.9
20260905141543 25 0 0.0 1.6 0.00 0.00 0.00 95 1016.0
20260905140045 25 0 0.0 1.6 0.00 0.00 0.00 96 1015.8
20260905134549 24 0 0.0 3.2 0.00 0.00 0.00 96 1015.8
20260905133050 24 0 0.0 3.2 0.00 0.00 0.00 96 1015.8